Powrót do katalogu

COSMOS 1275 DEB

AktywnyPO
NORAD 42178·DEBRIS·🇷🇺 Russia

Wystrzelony Jun 4, 1981 z Plesetsk Cosmodrome

Loading…

Następne Przeloty (najbliższe 24 godziny)

TLE

ŚwieżeSource: Space-Track

Epoka: Sep 13, 2026, 13:10 UTC

1 42178U 81053SS  26256.54896742  .00002118  00000-0  81272-3 0  9990
2 42178  82.9420 352.9139 0010559  60.2346 299.9890 14.30099056643581

Śledź COSMOS 1275 DEB w czasie rzeczywistym z AllMySat

Download on the App Store